| time (UTC) | temp C | wind direction | speed KPH | gust KPH | rain 1hr cm | rain 24hr cm | rain mn cm | humidity % | barometer mb |
| 20260510221542 | 20 | 360 | 3.2 | 12.9 | 0.00 | 0.00 | 0.00 | 29 | 1021.9 |
| 20260510221026 | 20 | 38 | 3.2 | 16.1 | 0.00 | 0.00 | 0.00 | 28 | 1021.8 |
| 20260510220529 | 20 | 5 | 3.2 | 17.7 | 0.00 | 0.00 | 0.00 | 28 | 1021.8 |
| 20260510220036 | 20 | 41 | 8.0 | 17.7 | 0.00 | 0.00 | 0.00 | 28 | 1021.8 |
| 20260510215525 | 20 | 352 | 3.2 | 14.5 | 0.00 | 0.00 | 0.00 | 30 | 1021.7 |
| 20260510215024 | 20 | 327 | 6.4 | 14.5 | 0.00 | 0.00 | 0.00 | 29 | 1021.6 |
| 20260510214535 | 20 | 263 | 1.6 | 14.5 | 0.00 | 0.00 | 0.00 | 29 | 1021.6 |
| 20260510214036 | 20 | 0 | 3.2 | 8.0 | 0.00 | 0.00 | 0.00 | 30 | 1021.6 |
| 20260510213523 | 20 | 54 | 1.6 | 17.7 | 0.00 | 0.00 | 0.00 | 30 | 1021.7 |
| 20260510213035 | 20 | 23 | 3.2 | 17.7 | 0.00 | 0.00 | 0.00 | 31 | 1021.6 |
| 20260510212524 | 20 | 18 | 6.4 | 17.7 | 0.00 | 0.00 | 0.00 | 28 | 1021.7 |
| 20260510212024 | 20 | 46 | 4.8 | 16.1 | 0.00 | 0.00 | 0.00 | 32 | 1021.7 |
| 20260510211536 | 20 | 5 | 4.8 | 16.1 | 0.00 | 0.00 | 0.00 | 27 | 1021.8 |
| 20260510211024 | 20 | 92 | 3.2 | 9.7 | 0.00 | 0.00 | 0.00 | 29 | 1021.8 |
| 20260510210522 | 20 | 320 | 4.8 | 19.3 | 0.00 | 0.00 | 0.00 | 32 | 1021.7 |
| 20260510210039 | 20 | 0 | 6.4 | 19.3 | 0.00 | 0.00 | 0.00 | 30 | 1021.9 |
| 20260510205523 | 19 | 5 | 3.2 | 16.1 | 0.00 | 0.00 | 0.00 | 32 | 1021.8 |
| 20260510205024 | 20 | 45 | 4.8 | 19.3 | 0.00 | 0.00 | 0.00 | 30 | 1022.0 |
| 20260510204541 | 20 | 36 | 4.8 | 19.3 | 0.00 | 0.00 | 0.00 | 31 | 1022.0 |
| 20260510204024 | 20 | 200 | 3.2 | 22.5 | 0.00 | 0.00 | 0.00 | 33 | 1021.9 |
| 20260510203522 | 20 | 350 | 8.0 | 22.5 | 0.00 | 0.00 | 0.00 | 31 | 1022.1 |
| 20260510203036 | 19 | 336 | 4.8 | 17.7 | 0.00 | 0.00 | 0.00 | 32 | 1022.1 |
| 20260510202523 | 19 | 5 | 8.0 | 17.7 | 0.00 | 0.00 | 0.00 | 31 | 1022.1 |
| 20260510202023 | 19 | 15 | 6.4 | 16.1 | 0.00 | 0.00 | 0.00 | 32 | 1022.3 |
| 20260510201534 | 19 | 352 | 8.0 | 16.1 | 0.00 | 0.00 | 0.00 | 31 | 1022.3 |
| 20260510201022 | 18 | 0 | 4.8 | 11.3 | 0.00 | 0.00 | 0.00 | 32 | 1022.3 |
| 20260510200523 | 18 | 25 | 3.2 | 12.9 | 0.00 | 0.00 | 0.00 | 32 | 1022.4 |
| 20260510200039 | 18 | 0 | 1.6 | 16.1 | 0.00 | 0.00 | 0.00 | 33 | 1022.5 |
| 20260510195524 | 18 | 5 | 6.4 | 16.1 | 0.00 | 0.00 | 0.00 | 32 | 1022.5 |
| 20260510195022 | 18 | 0 | 4.8 | 16.1 | 0.00 | 0.00 | 0.00 | 32 | 1022.8 |
| 20260510194550 | 18 | 74 | 4.8 | 12.9 | 0.00 | 0.00 | 0.00 | 32 | 1022.7 |
| 20260510194024 | 18 | 34 | 4.8 | 12.9 | 0.00 | 0.00 | 0.00 | 32 | 1022.6 |
| 20260510193524 | 18 | 111 | 1.6 | 12.9 | 0.00 | 0.00 | 0.00 | 33 | 1022.7 |
| 20260510193035 | 18 | 82 | 4.8 | 12.9 | 0.00 | 0.00 | 0.00 | 31 | 1022.8 |
| 20260510192525 | 18 | 38 | 3.2 | 16.1 | 0.00 | 0.00 | 0.00 | 32 | 1022.7 |
| 20260510192023 | 18 | 0 | 4.8 | 16.1 | 0.00 | 0.00 | 0.00 | 34 | 1022.9 |
| 20260510191537 | 18 | 14 | 3.2 | 9.7 | 0.00 | 0.00 | 0.00 | 33 | 1023.0 |
| 20260510191024 | 18 | 27 | 1.6 | 9.7 | 0.00 | 0.00 | 0.00 | 33 | 1023.0 |
| 20260510190523 | 18 | 352 | 3.2 | 16.1 | 0.00 | 0.00 | 0.00 | 34 | 1022.9 |
| 20260510190046 | 18 | 0 | 3.2 | 24.1 | 0.00 | 0.00 | 0.00 | 35 | 1022.9 |
| 20260510185524 | 17 | 5 | 6.4 | 24.1 | 0.00 | 0.00 | 0.00 | 33 | 1022.9 |
| 20260510185023 | 18 | 5 | 9.7 | 24.1 | 0.00 | 0.00 | 0.00 | 34 | 1022.9 |
| 20260510184536 | 17 | 58 | 4.8 | 14.5 | 0.00 | 0.00 | 0.00 | 33 | 1023.0 |
| 20260510184022 | 18 | 70 | 0.0 | 16.1 | 0.00 | 0.00 | 0.00 | 33 | 1023.0 |
| 20260510183524 | 18 | 72 | 4.8 | 16.1 | 0.00 | 0.00 | 0.00 | 34 | 1022.9 |
| 20260510183036 | 18 | 346 | 3.2 | 11.3 | 0.00 | 0.00 | 0.00 | 34 | 1022.7 |
| 20260510182524 | 18 | 46 | 1.6 | 9.7 | 0.00 | 0.00 | 0.00 | 34 | 1022.7 |
| 20260510182023 | 18 | 0 | 3.2 | 14.5 | 0.00 | 0.00 | 0.00 | 33 | 1022.7 |
| 20260510181535 | 17 | 51 | 4.8 | 17.7 | 0.00 | 0.00 | 0.00 | 33 | 1022.8 |
| 20260510181023 | 17 | 111 | 4.8 | 17.7 | 0.00 | 0.00 | 0.00 | 35 | 1022.8 |
| 20260510180524 | 17 | 5 | 4.8 | 14.5 | 0.00 | 0.00 | 0.00 | 34 | 1022.8 |
| 20260510180035 | 17 | 0 | 3.2 | 14.5 | 0.00 | 0.00 | 0.00 | 36 | 1022.7 |
| 20260510175522 | 17 | 36 | 3.2 | 9.7 | 0.00 | 0.00 | 0.00 | 37 | 1022.8 |
| 20260510175021 | 17 | 31 | 3.2 | 9.7 | 0.00 | 0.00 | 0.00 | 35 | 1022.9 |
| 20260510174538 | 17 | 351 | 1.6 | 8.0 | 0.00 | 0.00 | 0.00 | 38 | 1023.0 |
| 20260510174022 | 17 | 9 | 0.0 | 12.9 | 0.00 | 0.00 | 0.00 | 39 | 1023.1 |
| 20260510173524 | 17 | 15 | 4.8 | 12.9 | 0.00 | 0.00 | 0.00 | 37 | 1023.1 |
| 20260510173038 | 17 | 37 | 1.6 | 12.9 | 0.00 | 0.00 | 0.00 | 37 | 1023.1 |
| 20260510172524 | 17 | 360 | 3.2 | 12.9 | 0.00 | 0.00 | 0.00 | 37 | 1023.0 |
| 20260510172022 | 17 | 35 | 1.6 | 8.0 | 0.00 | 0.00 | 0.00 | 40 | 1023.1 |
| 20260510171538 | 16 | 331 | 3.2 | 8.0 | 0.00 | 0.00 | 0.00 | 38 | 1023.0 |
| 20260510171020 | 16 | 38 | 3.2 | 8.0 | 0.00 | 0.00 | 0.00 | 37 | 1022.9 |
| 20260510170522 | 16 | 16 | 0.0 | 14.5 | 0.00 | 0.00 | 0.00 | 39 | 1023.1 |
| 20260510170035 | 16 | 44 | 3.2 | 14.5 | 0.00 | 0.00 | 0.00 | 37 | 1022.9 |
| 20260510165523 | 16 | 336 | 3.2 | 12.9 | 0.00 | 0.00 | 0.00 | 37 | 1022.9 |
| 20260510165026 | 16 | 55 | 3.2 | 16.1 | 0.00 | 0.00 | 0.00 | 38 | 1022.8 |
| 20260510164534 | 16 | 57 | 1.6 | 17.7 | 0.00 | 0.00 | 0.00 | 37 | 1022.9 |
| 20260510164023 | 16 | 5 | 6.4 | 19.3 | 0.00 | 0.00 | 0.00 | 36 | 1022.8 |
| 20260510163522 | 16 | 15 | 6.4 | 19.3 | 0.00 | 0.00 | 0.00 | 37 | 1022.8 |
| 20260510163035 | 16 | 37 | 3.2 | 14.5 | 0.00 | 0.00 | 0.00 | 36 | 1022.7 |
| 20260510162522 | 17 | 39 | 3.2 | 12.9 | 0.00 | 0.00 | 0.00 | 36 | 1022.6 |
| 20260510162023 | 17 | 0 | 3.2 | 14.5 | 0.00 | 0.00 | 0.00 | 37 | 1022.4 |
| 20260510161534 | 16 | 0 | 3.2 | 14.5 | 0.00 | 0.00 | 0.00 | 39 | 1022.4 |
| 20260510161028 | 16 | 10 | 4.8 | 16.1 | 0.00 | 0.00 | 0.00 | 39 | 1022.6 |
| 20260510160523 | 16 | 35 | 4.8 | 16.1 | 0.00 | 0.00 | 0.00 | 39 | 1022.6 |
| 20260510160043 | 16 | 59 | 4.8 | 11.3 | 0.00 | 0.00 | 0.00 | 39 | 1022.7 |
| 20260510155522 | 16 | 32 | 1.6 | 12.9 | 0.00 | 0.00 | 0.00 | 39 | 1022.8 |
| 20260510155022 | 15 | 0 | 3.2 | 12.9 | 0.00 | 0.00 | 0.00 | 39 | 1022.8 |
| 20260510154537 | 15 | 22 | 4.8 | 11.3 | 0.00 | 0.00 | 0.00 | 41 | 1022.9 |
| 20260510154025 | 15 | 48 | 1.6 | 14.5 | 0.00 | 0.00 | 0.00 | 42 | 1022.9 |
| 20260510153523 | 15 | 337 | 3.2 | 14.5 | 0.00 | 0.00 | 0.00 | 40 | 1022.7 |
| 20260510153036 | 15 | 41 | 4.8 | 14.5 | 0.00 | 0.00 | 0.00 | 40 | 1022.5 |
| 20260510152524 | 15 | 0 | 0.0 | 12.9 | 0.00 | 0.00 | 0.00 | 42 | 1022.5 |
| 20260510152022 | 15 | 37 | 3.2 | 14.5 | 0.00 | 0.00 | 0.00 | 40 | 1022.4 |
| 20260510151535 | 15 | 56 | 1.6 | 16.1 | 0.00 | 0.00 | 0.00 | 41 | 1022.4 |
| 20260510151026 | 15 | 70 | 3.2 | 16.1 | 0.00 | 0.00 | 0.00 | 41 | 1022.1 |
| 20260510150526 | 15 | 30 | 3.2 | 16.1 | 0.00 | 0.00 | 0.00 | 42 | 1022.1 |
| 20260510150041 | 15 | 45 | 3.2 | 16.1 | 0.00 | 0.00 | 0.00 | 41 | 1022.1 |
| 20260510145528 | 14 | 360 | 6.4 | 14.5 | 0.00 | 0.00 | 0.00 | 41 | 1022.0 |
| 20260510145026 | 15 | 15 | 1.6 | 11.3 | 0.00 | 0.00 | 0.00 | 43 | 1022.0 |
| 20260510144600 | 14 | 0 | 1.6 | 14.5 | 0.00 | 0.00 | 0.00 | 44 | 1022.0 |
| 20260510144024 | 14 | 136 | 1.6 | 14.5 | 0.00 | 0.00 | 0.00 | 42 | 1022.1 |
| 20260510143526 | 14 | 315 | 4.8 | 19.3 | 0.00 | 0.00 | 0.00 | 41 | 1022.0 |
| 20260510143036 | 14 | 29 | 4.8 | 19.3 | 0.00 | 0.00 | 0.00 | 41 | 1022.1 |
| 20260510142525 | 14 | 88 | 3.2 | 14.5 | 0.00 | 0.00 | 0.00 | 43 | 1022.0 |
| 20260510142026 | 14 | 45 | 4.8 | 14.5 | 0.00 | 0.00 | 0.00 | 42 | 1022.1 |
| 20260510141538 | 14 | 0 | 1.6 | 16.1 | 0.00 | 0.00 | 0.00 | 43 | 1022.0 |
| 20260510141024 | 14 | 0 | 4.8 | 16.1 | 0.00 | 0.00 | 0.00 | 42 | 1021.8 |
| 20260510140532 | 14 | 0 | 0.0 | 14.5 | 0.00 | 0.00 | 0.00 | 43 | 1022.0 |
| 20260510140035 | 13 | 0 | 1.6 | 14.5 | 0.00 | 0.00 | 0.00 | 42 | 1022.0 |
| 20260510135524 | 13 | 0 | 3.2 | 14.5 | 0.00 | 0.00 | 0.00 | 43 | 1021.9 |
| 20260510135023 | 13 | 55 | 4.8 | 14.5 | 0.00 | 0.00 | 0.00 | 43 | 1021.9 |
| 20260510134539 | 13 | 37 | 1.6 | 12.9 | 0.00 | 0.00 | 0.00 | 44 | 1022.0 |
| 20260510134022 | 13 | 78 | 1.6 | 12.9 | 0.00 | 0.00 | 0.00 | 43 | 1021.9 |
| 20260510133528 | 13 | 66 | 1.6 | 11.3 | 0.00 | 0.00 | 0.00 | 43 | 1021.9 |
| 20260510133045 | 13 | 26 | 3.2 | 12.9 | 0.00 | 0.00 | 0.00 | 43 | 1021.8 |
| 20260510132527 | 13 | 0 | 1.6 | 12.9 | 0.00 | 0.00 | 0.00 | 43 | 1021.7 |
| 20260510132025 | 13 | 45 | 3.2 | 16.1 | 0.00 | 0.00 | 0.00 | 43 | 1021.6 |
| 20260510131537 | 13 | 0 | 0.0 | 16.1 | 0.00 | 0.00 | 0.00 | 44 | 1021.6 |
| 20260510131027 | 13 | 41 | 1.6 | 14.5 | 0.00 | 0.00 | 0.00 | 43 | 1021.5 |
| 20260510130526 | 13 | 348 | 3.2 | 14.5 | 0.00 | 0.00 | 0.00 | 44 | 1021.5 |
| 20260510130037 | 13 | 51 | 1.6 | 14.5 | 0.00 | 0.00 | 0.00 | 43 | 1021.5 |
| 20260510125525 | 13 | 94 | 6.4 | 16.1 | 0.00 | 0.00 | 0.00 | 43 | 1021.3 |
| 20260510125023 | 13 | 15 | 3.2 | 16.1 | 0.00 | 0.00 | 0.00 | 44 | 1021.4 |
| 20260510124541 | 13 | 5 | 4.8 | 12.9 | 0.00 | 0.00 | 0.00 | 44 | 1021.2 |
| 20260510124025 | 13 | 5 | 1.6 | 14.5 | 0.00 | 0.00 | 0.00 | 44 | 1021.0 |
| 20260510123525 | 13 | 26 | 4.8 | 14.5 | 0.00 | 0.00 | 0.00 | 44 | 1021.0 |
| 20260510123044 | 13 | 0 | 6.4 | 14.5 | 0.00 | 0.00 | 0.00 | 43 | 1020.9 |
| 20260510122523 | 13 | 23 | 3.2 | 14.5 | 0.00 | 0.00 | 0.00 | 44 | 1020.6 |
| 20260510122025 | 13 | 44 | 4.8 | 14.5 | 0.00 | 0.00 | 0.00 | 44 | 1020.5 |
| 20260510121541 | 12 | 23 | 3.2 | 12.9 | 0.00 | 0.00 | 0.00 | 44 | 1020.3 |
| 20260510121026 | 12 | 36 | 3.2 | 17.7 | 0.00 | 0.00 | 0.00 | 45 | 1020.3 |
| 20260510120522 | 12 | 54 | 1.6 | 17.7 | 0.00 | 0.00 | 0.00 | 45 | 1020.1 |
| 20260510120036 | 12 | 38 | 3.2 | 17.7 | 0.00 | 0.00 | 0.00 | 45 | 1020.0 |
| 20260510115526 | 12 | 22 | 1.6 | 14.5 | 0.00 | 0.00 | 0.00 | 45 | 1020.0 |
| 20260510115026 | 12 | 26 | 3.2 | 14.5 | 0.00 | 0.00 | 0.00 | 45 | 1020.0 |
| 20260510114600 | 12 | 46 | 3.2 | 14.5 | 0.00 | 0.00 | 0.00 | 45 | 1019.6 |
| 20260510114026 | 12 | 355 | 3.2 | 14.5 | 0.00 | 0.00 | 0.00 | 45 | 1019.5 |
| 20260510113528 | 13 | 0 | 1.6 | 14.5 | 0.00 | 0.00 | 0.00 | 45 | 1019.4 |
| 20260510113050 | 13 | 26 | 3.2 | 12.9 | 0.00 | 0.00 | 0.00 | 45 | 1019.4 |
| 20260510112525 | 13 | 11 | 3.2 | 12.9 | 0.00 | 0.00 | 0.00 | 45 | 1019.3 |
| 20260510112025 | 13 | 0 | 3.2 | 12.9 | 0.00 | 0.00 | 0.00 | 45 | 1019.1 |
| 20260510111538 | 13 | 22 | 3.2 | 14.5 | 0.00 | 0.00 | 0.00 | 46 | 1019.2 |
| 20260510111025 | 13 | 26 | 1.6 | 14.5 | 0.00 | 0.00 | 0.00 | 46 | 1019.2 |
| 20260510110528 | 13 | 28 | 4.8 | 16.1 | 0.00 | 0.00 | 0.00 | 47 | 1019.1 |
| 20260510110040 | 13 | 0 | 3.2 | 16.1 | 0.00 | 0.00 | 0.00 | 47 | 1019.2 |
| 20260510105525 | 13 | 355 | 4.8 | 19.3 | 0.00 | 0.03 | 0.00 | 47 | 1019.2 |
| 20260510105024 | 13 | 29 | 3.2 | 19.3 | 0.00 | 0.03 | 0.00 | 47 | 1018.8 |
| 20260510104543 | 13 | 35 | 4.8 | 19.3 | 0.00 | 0.03 | 0.00 | 47 | 1018.8 |
| 20260510104024 | 13 | 28 | 4.8 | 16.1 | 0.00 | 0.03 | 0.00 | 47 | 1018.7 |
| 20260510103526 | 13 | 13 | 3.2 | 16.1 | 0.00 | 0.03 | 0.00 | 46 | 1018.9 |
| 20260510103038 | 14 | 0 | 1.6 | 12.9 | 0.00 | 0.03 | 0.00 | 46 | 1018.8 |
| 20260510102526 | 14 | 28 | 1.6 | 14.5 | 0.00 | 0.03 | 0.00 | 45 | 1018.8 |
| 20260510102024 | 14 | 329 | 4.8 | 14.5 | 0.00 | 0.03 | 0.00 | 45 | 1018.6 |
| 20260510101537 | 14 | 0 | 1.6 | 14.5 | 0.00 | 0.03 | 0.00 | 45 | 1018.4 |
| 20260510101029 | 14 | 80 | 4.8 | 16.1 | 0.00 | 0.03 | 0.00 | 45 | 1018.6 |
| 20260510100523 | 14 | 17 | 4.8 | 16.1 | 0.00 | 0.03 | 0.00 | 45 | 1018.5 |
| 20260510100050 | 14 | 28 | 6.4 | 16.1 | 0.00 | 0.03 | 0.00 | 46 | 1018.4 |
| 20260510095525 | 15 | 57 | 3.2 | 16.1 | 0.00 | 0.03 | 0.00 | 47 | 1018.3 |
| 20260510095025 | 15 | 360 | 4.8 | 16.1 | 0.00 | 0.03 | 0.00 | 47 | 1018.2 |
| 20260510094540 | 15 | 0 | 3.2 | 16.1 | 0.00 | 0.03 | 0.00 | 48 | 1018.2 |
| 20260510094023 | 15 | 55 | 1.6 | 16.1 | 0.00 | 0.03 | 0.00 | 48 | 1018.1 |
| 20260510093526 | 15 | 35 | 4.8 | 16.1 | 0.00 | 0.03 | 0.00 | 47 | 1017.8 |
| 20260510093035 | 15 | 5 | 4.8 | 17.7 | 0.00 | 0.03 | 0.00 | 47 | 1017.8 |
| 20260510092526 | 15 | 34 | 1.6 | 17.7 | 0.00 | 0.03 | 0.00 | 48 | 1017.8 |
| 20260510092024 | 15 | 5 | 4.8 | 17.7 | 0.00 | 0.03 | 0.00 | 48 | 1017.8 |
| 20260510091537 | 15 | 68 | 1.6 | 16.1 | 0.00 | 0.03 | 0.00 | 48 | 1017.9 |
| 20260510091026 | 15 | 41 | 6.4 | 16.1 | 0.00 | 0.03 | 0.00 | 49 | 1017.9 |
| 20260510090523 | 15 | 55 | 6.4 | 19.3 | 0.00 | 0.03 | 0.00 | 50 | 1017.8 |
| 20260510090035 | 15 | 47 | 6.4 | 19.3 | 0.00 | 0.03 | 0.00 | 51 | 1017.6 |
| 20260510085523 | 15 | 62 | 3.2 | 14.5 | 0.00 | 0.03 | 0.00 | 52 | 1017.5 |
| 20260510085023 | 15 | 55 | 3.2 | 19.3 | 0.00 | 0.03 | 0.00 | 53 | 1017.3 |
| 20260510084536 | 15 | 352 | 4.8 | 19.3 | 0.00 | 0.03 | 0.00 | 54 | 1017.2 |
| 20260510084023 | 15 | 32 | 4.8 | 19.3 | 0.00 | 0.03 | 0.00 | 54 | 1017.1 |
| 20260510083523 | 15 | 50 | 6.4 | 14.5 | 0.00 | 0.03 | 0.00 | 54 | 1017.1 |
| 20260510083042 | 15 | 40 | 3.2 | 16.1 | 0.00 | 0.03 | 0.00 | 54 | 1017.1 |
| 20260510082527 | 15 | 13 | 4.8 | 16.1 | 0.00 | 0.03 | 0.00 | 53 | 1017.1 |
| 20260510082021 | 16 | 0 | 4.8 | 16.1 | 0.00 | 0.03 | 0.00 | 53 | 1016.9 |
| 20260510081536 | 16 | 22 | 4.8 | 14.5 | 0.00 | 0.03 | 0.00 | 55 | 1017.0 |
| 20260510081022 | 16 | 56 | 3.2 | 14.5 | 0.00 | 0.03 | 0.00 | 56 | 1016.6 |
| 20260510080522 | 16 | 355 | 3.2 | 12.9 | 0.00 | 0.03 | 0.00 | 58 | 1016.6 |
| 20260510080035 | 16 | 0 | 1.6 | 12.9 | 0.00 | 0.03 | 0.00 | 59 | 1016.6 |
| 20260510075525 | 16 | 0 | 4.8 | 11.3 | 0.00 | 0.03 | 0.00 | 59 | 1016.6 |
| 20260510075023 | 16 | 0 | 0.0 | 12.9 | 0.00 | 0.03 | 0.00 | 60 | 1016.4 |
| 20260510074543 | 16 | 24 | 1.6 | 12.9 | 0.00 | 0.03 | 0.00 | 59 | 1016.4 |
| 20260510074026 | 16 | 28 | 3.2 | 12.9 | 0.00 | 0.03 | 0.00 | 59 | 1016.3 |
| 20260510073522 | 16 | 60 | 1.6 | 12.9 | 0.00 | 0.03 | 0.00 | 60 | 1016.1 |
| 20260510073037 | 16 | 53 | 1.6 | 9.7 | 0.00 | 0.03 | 0.00 | 60 | 1016.3 |
| 20260510072524 | 16 | 33 | 1.6 | 9.7 | 0.00 | 0.03 | 0.00 | 60 | 1016.3 |
| 20260510072025 | 16 | 42 | 3.2 | 9.7 | 0.00 | 0.03 | 0.00 | 60 | 1016.4 |
| 20260510071539 | 16 | 49 | 1.6 | 11.3 | 0.00 | 0.03 | 0.00 | 60 | 1016.4 |
| 20260510071020 | 16 | 0 | 1.6 | 11.3 | 0.00 | 0.03 | 0.00 | 60 | 1016.3 |
| 20260510070523 | 16 | 0 | 1.6 | 8.0 | 0.00 | 0.03 | 0.00 | 60 | 1016.1 |
| 20260510070052 | 16 | 0 | 0.0 | 4.8 | 0.00 | 0.03 | 0.00 | 60 | 1016.0 |
| 20260510065524 | 16 | 35 | 0.0 | 4.8 | 0.00 | 0.03 | 0.00 | 60 | 1015.9 |
| 20260510065021 | 16 | 0 | 0.0 | 6.4 | 0.00 | 0.03 | 0.00 | 59 | 1015.9 |
| 20260510064534 | 17 | 0 | 0.0 | 11.3 | 0.00 | 0.03 | 0.00 | 59 | 1015.8 |
| 20260510064023 | 17 | 10 | 1.6 | 11.3 | 0.00 | 0.03 | 0.00 | 58 | 1015.8 |
| 20260510063523 | 17 | 32 | 1.6 | 8.0 | 0.00 | 0.03 | 0.00 | 57 | 1015.6 |
| 20260510063042 | 17 | 0 | 0.0 | 9.7 | 0.00 | 0.03 | 0.00 | 57 | 1015.4 |
| 20260510062523 | 17 | 22 | 1.6 | 9.7 | 0.00 | 0.03 | 0.00 | 56 | 1015.3 |
| 20260510062023 | 17 | 0 | 3.2 | 9.7 | 0.00 | 0.03 | 0.00 | 55 | 1015.2 |
| 20260510061538 | 17 | 52 | 0.0 | 12.9 | 0.00 | 0.03 | 0.00 | 55 | 1015.4 |
| 20260510061023 | 17 | 26 | 3.2 | 12.9 | 0.00 | 0.03 | 0.00 | 55 | 1015.5 |
| 20260510060524 | 18 | 36 | 3.2 | 6.4 | 0.00 | 0.03 | 0.00 | 54 | 1015.4 |
| 20260510060041 | 18 | 9 | 1.6 | 8.0 | 0.00 | 0.03 | 0.00 | 54 | 1015.4 |
| 20260510055523 | 18 | 0 | 1.6 | 8.0 | 0.00 | 0.03 | 0.00 | 53 | 1015.3 |
| 20260510055024 | 18 | 40 | 0.0 | 3.2 | 0.00 | 0.03 | 0.00 | 53 | 1015.3 |
| 20260510054542 | 18 | 0 | 0.0 | 3.2 | 0.00 | 0.03 | 0.00 | 52 | 1015.4 |
| 20260510054023 | 18 | 66 | 0.0 | 1.6 | 0.00 | 0.03 | 0.00 | 52 | 1015.4 |
| 20260510053524 | 18 | 0 | 0.0 | 1.6 | 0.00 | 0.03 | 0.00 | 52 | 1015.4 |
| 20260510053036 | 18 | 0 | 0.0 | 3.2 | 0.00 | 0.03 | 0.00 | 52 | 1015.3 |
| 20260510052523 | 18 | 0 | 0.0 | 3.2 | 0.00 | 0.03 | 0.00 | 51 | 1015.3 |
| 20260510052023 | 18 | 69 | 0.0 | 3.2 | 0.00 | 0.03 | 0.00 | 51 | 1015.3 |
| 20260510051537 | 18 | 0 | 0.0 | 6.4 | 0.00 | 0.03 | 0.00 | 51 | 1015.0 |
| 20260510051024 | 18 | 0 | 0.0 | 6.4 | 0.00 | 0.03 | 0.00 | 51 | 1014.8 |
| 20260510050523 | 19 | 0 | 0.0 | 9.7 | 0.00 | 0.03 | 0.00 | 51 | 1014.6 |
| 20260510050035 | 19 | 36 | 1.6 | 12.9 | 0.00 | 0.03 | 0.00 | 50 | 1014.5 |
| 20260510045526 | 19 | 326 | 1.6 | 14.5 | 0.00 | 0.03 | 0.03 | 50 | 1014.4 |
| 20260510045024 | 19 | 38 | 3.2 | 14.5 | 0.00 | 0.03 | 0.03 | 50 | 1014.3 |
| 20260510044537 | 19 | 360 | 3.2 | 14.5 | 0.00 | 0.03 | 0.03 | 51 | 1014.4 |
| 20260510044023 | 19 | 15 | 4.8 | 16.1 | 0.00 | 0.03 | 0.03 | 50 | 1014.3 |
| 20260510043523 | 19 | 355 | 3.2 | 16.1 | 0.00 | 0.03 | 0.03 | 50 | 1014.1 |
| 20260510043037 | 19 | 360 | 4.8 | 16.1 | 0.00 | 0.03 | 0.03 | 50 | 1014.1 |
| 20260510042526 | 20 | 24 | 3.2 | 14.5 | 0.00 | 0.03 | 0.03 | 50 | 1014.0 |
| 20260510042024 | 20 | 0 | 1.6 | 16.1 | 0.00 | 0.03 | 0.03 | 50 | 1013.9 |
| 20260510041546 | 20 | 40 | 4.8 | 16.1 | 0.00 | 0.03 | 0.03 | 50 | 1013.9 |
| 20260510041023 | 20 | 22 | 3.2 | 11.3 | 0.00 | 0.03 | 0.03 | 50 | 1013.7 |
| 20260510040521 | 20 | 360 | 3.2 | 11.3 | 0.00 | 0.03 | 0.03 | 50 | 1013.5 |
| 20260510040035 | 20 | 14 | 1.6 | 8.0 | 0.00 | 0.03 | 0.03 | 51 | 1013.4 |
| 20260510035521 | 20 | 32 | 0.0 | 8.0 | 0.00 | 0.03 | 0.03 | 51 | 1013.3 |
| 20260510035024 | 20 | 0 | 0.0 | 8.0 | 0.00 | 0.03 | 0.03 | 52 | 1013.3 |
| 20260510034540 | 20 | 0 | 0.0 | 4.8 | 0.00 | 0.03 | 0.03 | 52 | 1013.1 |
| 20260510034025 | 20 | 0 | 0.0 | 4.8 | 0.00 | 0.03 | 0.03 | 53 | 1012.9 |
| 20260510033520 | 20 | 0 | 0.0 | 4.8 | 0.00 | 0.03 | 0.03 | 53 | 1012.9 |
| 20260510033039 | 20 | 43 | 0.0 | 4.8 | 0.00 | 0.03 | 0.03 | 52 | 1012.7 |
| 20260510032523 | 20 | 0 | 0.0 | 4.8 | 0.00 | 0.03 | 0.03 | 53 | 1012.6 |
| 20260510032024 | 20 | 0 | 0.0 | 4.8 | 0.00 | 0.03 | 0.03 | 53 | 1012.5 |
| 20260510031538 | 20 | 0 | 0.0 | 4.8 | 0.00 | 0.03 | 0.03 | 53 | 1012.5 |
| 20260510031023 | 20 | 0 | 0.0 | 0.0 | 0.00 | 0.03 | 0.03 | 54 | 1012.6 |
| 20260510030523 | 20 | 0 | 0.0 | 0.0 | 0.00 | 0.03 | 0.03 | 55 | 1012.4 |
| 20260510030036 | 20 | 0 | 0.0 | 4.8 | 0.00 | 0.03 | 0.03 | 55 | 1012.4 |
| 20260510025524 | 20 | 0 | 0.0 | 4.8 | 0.00 | 0.03 | 0.03 | 54 | 1012.2 |
| 20260510025024 | 20 | 0 | 0.0 | 3.2 | 0.00 | 0.03 | 0.03 | 54 | 1012.1 |
| 20260510024534 | 20 | 46 | 0.0 | 3.2 | 0.00 | 0.03 | 0.03 | 54 | 1011.9 |
| 20260510024023 | 20 | 0 | 0.0 | 8.0 | 0.00 | 0.03 | 0.03 | 53 | 1011.8 |
| 20260510023523 | 20 | 0 | 1.6 | 8.0 | 0.00 | 0.03 | 0.03 | 52 | 1011.7 |
| 20260510023035 | 21 | 34 | 1.6 | 8.0 | 0.00 | 0.03 | 0.03 | 50 | 1011.8 |
| 20260510022528 | 21 | 32 | 1.6 | 8.0 | 0.00 | 0.03 | 0.03 | 47 | 1012.1 |
| 20260510022023 | 21 | 26 | 1.6 | 9.7 | 0.00 | 0.03 | 0.03 | 46 | 1012.1 |
| 20260510021539 | 21 | 0 | 1.6 | 12.9 | 0.00 | 0.03 | 0.03 | 45 | 1012.3 |
| 20260510021023 | 21 | 0 | 3.2 | 12.9 | 0.00 | 0.03 | 0.03 | 44 | 1012.0 |
| 20260510020523 | 22 | 352 | 3.2 | 14.5 | 0.00 | 0.03 | 0.03 | 44 | 1011.7 |
| 20260510020036 | 22 | 16 | 3.2 | 14.5 | 0.00 | 0.03 | 0.03 | 44 | 1011.5 |
| 20260510015523 | 22 | 47 | 4.8 | 14.5 | 0.00 | 0.03 | 0.03 | 44 | 1011.4 |
| 20260510015020 | 22 | 20 | 1.6 | 12.9 | 0.00 | 0.03 | 0.03 | 44 | 1011.1 |
| 20260510014536 | 22 | 14 | 3.2 | 19.3 | 0.00 | 0.03 | 0.03 | 43 | 1011.1 |
| 20260510014025 | 22 | 24 | 4.8 | 20.9 | 0.00 | 0.03 | 0.03 | 43 | 1011.1 |
| 20260510013523 | 22 | 338 | 8.0 | 20.9 | 0.00 | 0.03 | 0.03 | 42 | 1010.8 |
| 20260510013041 | 22 | 28 | 8.0 | 20.9 | 0.00 | 0.03 | 0.03 | 42 | 1010.8 |
| 20260510012523 | 22 | 350 | 6.4 | 19.3 | 0.00 | 0.03 | 0.03 | 42 | 1010.7 |
| 20260510012023 | 22 | 360 | 4.8 | 17.7 | 0.00 | 0.03 | 0.03 | 43 | 1010.7 |
| 20260510011536 | 23 | 35 | 6.4 | 17.7 | 0.00 | 0.03 | 0.03 | 43 | 1010.7 |
| 20260510011021 | 23 | 5 | 4.8 | 17.7 | 0.00 | 0.03 | 0.03 | 43 | 1010.7 |
| 20260510010522 | 23 | 0 | 3.2 | 16.1 | 0.00 | 0.03 | 0.03 | 43 | 1010.6 |
| 20260510010036 | 23 | 360 | 3.2 | 19.3 | 0.00 | 0.03 | 0.03 | 43 | 1010.4 |
| 20260510005523 | 23 | 25 | 1.6 | 19.3 | 0.00 | 0.03 | 0.03 | 43 | 1010.3 |
| 20260510005022 | 23 | 335 | 3.2 | 19.3 | 0.00 | 0.03 | 0.03 | 43 | 1010.1 |
| 20260510004536 | 23 | 22 | 1.6 | 17.7 | 0.00 | 0.03 | 0.03 | 43 | 1010.0 |
| 20260510004022 | 23 | 0 | 3.2 | 17.7 | 0.00 | 0.03 | 0.03 | 42 | 1010.0 |
| 20260510003523 | 23 | 28 | 3.2 | 17.7 | 0.00 | 0.03 | 0.03 | 42 | 1010.0 |
| 20260510003051 | 23 | 46 | 4.8 | 14.5 | 0.00 | 0.03 | 0.03 | 42 | 1009.9 |
| 20260510002522 | 24 | 5 | 1.6 | 17.7 | 0.00 | 0.03 | 0.03 | 41 | 1009.8 |
| 20260510002023 | 24 | 348 | 3.2 | 17.7 | 0.00 | 0.03 | 0.03 | 42 | 1009.8 |
| 20260510001541 | 24 | 28 | 4.8 | 19.3 | 0.00 | 0.03 | 0.03 | 41 | 1009.7 |
| 20260510001024 | 24 | 31 | 4.8 | 29.0 | 0.00 | 0.03 | 0.03 | 41 | 1009.7 |
| 20260510000524 | 25 | 360 | 8.0 | 29.0 | 0.00 | 0.03 | 0.03 | 40 | 1009.6 |
| 20260510000039 | 25 | 348 | 8.0 | 25.7 | 0.00 | 0.03 | 0.03 | 39 | 1009.7 |
| 20260509235521 | 25 | 355 | 3.2 | 16.1 | 0.00 | 0.03 | 0.03 | 38 | 1009.6 |
| 20260509235109 | 25 | 292 | 3.2 | 14.5 | 0.00 | 0.03 | 0.03 | 38 | 1009.4 |
| 20260509234545 | 25 | 292 | 4.8 | 14.5 | 0.00 | 0.03 | 0.03 | 38 | 1009.3 |
| 20260509234030 | 25 | 297 | 3.2 | 9.7 | 0.00 | 0.03 | 0.03 | 38 | 1009.3 |
| 20260509233525 | 25 | 340 | 1.6 | 19.3 | 0.00 | 0.03 | 0.03 | 38 | 1009.3 |
| 20260509233040 | 25 | 320 | 4.8 | 19.3 | 0.00 | 0.03 | 0.03 | 37 | 1009.2 |
| 20260509232525 | 25 | 284 | 1.6 | 14.5 | 0.00 | 0.03 | 0.03 | 38 | 1009.2 |
| 20260509232027 | 25 | 51 | 3.2 | 14.5 | 0.00 | 0.03 | 0.03 | 38 | 1009.1 |
| 20260509231536 | 25 | 286 | 3.2 | 14.5 | 0.00 | 0.03 | 0.03 | 37 | 1009.1 |
| 20260509231026 | 26 | 300 | 1.6 | 11.3 | 0.00 | 0.03 | 0.03 | 37 | 1009.1 |
| 20260509230525 | 26 | 287 | 1.6 | 17.7 | 0.00 | 0.03 | 0.03 | 36 | 1008.9 |
| 20260509230036 | 26 | 302 | 1.6 | 17.7 | 0.00 | 0.03 | 0.03 | 37 | 1008.9 |
| 20260509225525 | 26 | 310 | 4.8 | 19.3 | 0.00 | 0.03 | 0.03 | 36 | 1009.0 |
| 20260509225025 | 26 | 346 | 4.8 | 19.3 | 0.00 | 0.03 | 0.03 | 36 | 1009.0 |
| 20260509224536 | 26 | 293 | 1.6 | 19.3 | 0.00 | 0.03 | 0.03 | 36 | 1009.0 |
| 20260509224023 | 26 | 318 | 4.8 | 19.3 | 0.00 | 0.03 | 0.03 | 35 | 1009.0 |
| 20260509223525 | 26 | 285 | 3.2 | 16.1 | 0.00 | 0.03 | 0.03 | 35 | 1008.8 |
| 20260509223035 | 26 | 0 | 4.8 | 19.3 | 0.00 | 0.03 | 0.03 | 34 | 1008.6 |
| 20260509222524 | 27 | 287 | 6.4 | 24.1 | 0.00 | 0.03 | 0.03 | 33 | 1008.7 |
| 20260509222025 | 27 | 300 | 8.0 | 24.1 | 0.00 | 0.03 | 0.03 | 32 | 1008.8 |